Regional Weather Roundup
Issued by NWS

Home | Current Version | Previous Version | Text Only | Print | Product List | Glossary On
Versions: 1 2 3 4 5 6 7 8 9 10 11 12 13 14 15 16 17 18 19 20 21 22 23 24 25 26 27 28 29 30 31 32 33 34 35 36 37 38 39 40 41 42 43 44 45 46 47 48 49 50
000
ASUS44 KFWD 280015
RWRTX
NORTH TEXAS HOURLY WEATHER ROUNDUP
NATIONAL WEATHER SERVICE FORT WORTH TX
700 PM CDT MON APR 27 2015

NOTE: "FAIR" INDICATES FEW OR NO CLOUDS BELOW 12,000 FEET WITH NO
SIGNIFICANT WEATHER AND/OR OBSTRUCTIONS TO VISIBILITY.

TXZ118-119-280100-
DALLAS/FORT WORTH METROPLEX

CITY           SKY/WX    TMP DP  RH WIND       PRES   REMARKS
DFW AIRPORT    TSTM      61  60  97 N18       29.77R FOG
6HR MIN TEMP:  61; 6HR MAX TEMP:  69; 6HR PCP:  0.77;

DALLAS LOVE    TSTM      63  60  90 NW18G26   29.76R VSB 1
6HR MIN TEMP:  65; 6HR MAX TEMP:  71; 6HR PCP:  0.02;

FTW MEACHAM    LGT RAIN  63  61  93 N14       29.76S FOG
6HR MIN TEMP:  62; 6HR MAX TEMP:  69; 6HR PCP:  0.60;

DAL-EXECUTIVE  HVY RAIN  62  60  93 NW16G26   29.75R VSB 3/4
6HR MIN TEMP:  65; 6HR MAX TEMP:  69; 6HR PCP:  0.02;

FTW-ALLIANCE   LGT RAIN  60  59  96 NE14      29.77S
6HR MIN TEMP:  60; 6HR MAX TEMP:  68; 6HR PCP:  0.18;

FTW-NAS-JRB    PTSUNNY   64  61  90 N13       29.78R
6HR MIN TEMP:  62; 6HR MAX TEMP:  70;

FTW-SPINKS     PTSUNNY   63  61  94 N14       29.77S
ARLINGTON      LGT RAIN  63  59  87 N18       29.76R
6HR MIN TEMP:  63; 6HR MAX TEMP:  70; 6HR PCP:  0.60;

GRAND PRAIRIE  CLOUDY    63  63 100 NW7G21    29.73S VSB 1/2
MESQUITE       CLOUDY    66  57  72 N5        29.73S
LANCASTER      CLOUDY    67  57  72 E8        29.72S
6HR MIN TEMP:  65; 6HR MAX TEMP:  68;

$$

TXZ091>094-102>105-117-120-121-131>134-280100-
NORTH CENTRAL TEXAS

CITY           SKY/WX    TMP DP  RH WIND       PRES   REMARKS
SHRMAN/DENISON LGT RAIN  61  59  92 NW17G25   29.85R
6HR MIN TEMP:  61; 6HR MAX TEMP:  66;

GAINESVILLE    LGT RAIN  54  53  97 N15G25    29.85F
6HR MIN TEMP:  54; 6HR MAX TEMP:  62; 6HR PCP:  0.27;

BOWIE          CLOUDY    58  56  91 NE8       29.83R
6HR MIN TEMP:  57; 6HR MAX TEMP:  62; 6HR PCP:  0.21;

BRIDGEPORT     CLOUDY    61  59  92 NE13      29.83R
6HR MIN TEMP:  60; 6HR MAX TEMP:  68; 6HR PCP:  0.56;

DECATUR        CLOUDY    60  58  96 N10       29.81R
6HR MIN TEMP:  59; 6HR MAX TEMP:  65; 6HR PCP:  0.51;

DENTON         LGT RAIN  59  58  96 N18       29.79S
6HR MIN TEMP:  59; 6HR MAX TEMP:  68; 6HR PCP:  0.16;

MCKINNEY       CLOUDY    65  57  75 NE8       29.76S
6HR MIN TEMP:  65; 6HR MAX TEMP:  69; 6HR PCP: TRACE;

GREENVILLE     CLOUDY    66  54  63 NE9       29.75F
ROCKWALL       CLOUDY    67  57  71 E10       29.72F
6HR MIN TEMP:  67; 6HR MAX TEMP:  69;

TERRELL        PTSUNNY   70  57  63 NE12      29.72F
6HR MIN TEMP:  69; 6HR MAX TEMP:  73; 6HR PCP: TRACE;

WAXAHACHIE     HVY RAIN  65  60  85 W5        29.75R
6HR MIN TEMP:  65; 6HR MAX TEMP:  69; 6HR PCP:  0.01;

CLEBURNE       PTSUNNY   64  64 100 N15G21    29.76R
GRANBURY       PTSUNNY   67  61  79 N10       29.78R
6HR MIN TEMP:  65; 6HR MAX TEMP:  76; 6HR PCP:  0.28;

$$

TXZ083>090-098>101-113>116-127>130-139>142-154-155-280100-
WESTERN NORTH TEXAS

CITY           SKY/WX    TMP DP  RH WIND       PRES   REMARKS
WICHITA FALLS  CLOUDY    56  51  84 NE21      29.86R
6HR MIN TEMP:  56; 6HR MAX TEMP:  65; 6HR PCP:  0.01;

WF-KICKAPOO    CLOUDY    58  53  83 NE16G24   29.87R
6HR MIN TEMP:  58; 6HR MAX TEMP:  67;

VERNON         CLOUDY    55  47  77 NE20      29.89R
ABILENE        CLOUDY    70  48  45 NW10      29.80R
6HR MIN TEMP:  67; 6HR MAX TEMP:  75;

ABILENE-DYESS  MOSUNNY   68  50  52 N16       29.79R
6HR MIN TEMP:  66; 6HR MAX TEMP:  73;

BRECKENRIDGE   MOSUNNY   72  54  53 NE12G18   29.78R HAZE
6HR MIN TEMP:  68; 6HR MAX TEMP:  74;

GRAHAM         PTSUNNY   65  59  82 NE8       29.79R
6HR MIN TEMP:  64; 6HR MAX TEMP:  71;

MINERAL WELLS  PTSUNNY   66  59  78 N9        29.77R
6HR MIN TEMP:  63; 6HR MAX TEMP:  69; 6HR PCP:  0.12;

STEPHENVILLE   SUNNY     68  58  71 N13G18    29.79R
6HR MIN TEMP:  68; 6HR MAX TEMP:  76;

COMANCHE       MOSUNNY   70  57  63 N13G18    29.77R
6HR MIN TEMP:  70; 6HR MAX TEMP:  75;

BROWNWOOD      MOSUNNY   66  59  77 NW13      29.78R
COLEMAN        MOSUNNY   69  54  58 N12       29.78R
6HR MIN TEMP:  69; 6HR MAX TEMP:  76;

BRADY          MOSUNNY   79  46  31 N8        29.75R
$$

TXZ143>147-156>162-174-175-280100-
CENTRAL TEXAS

CITY           SKY/WX    TMP DP  RH WIND       PRES   REMARKS
WACO           MOSUNNY   73  65  75 E7        29.69S
6HR MIN TEMP:  73; 6HR MAX TEMP:  79;

WACO-MCGREGOR  MOSUNNY   77  63  61 NE6       29.71R
6HR MIN TEMP:  73; 6HR MAX TEMP:  81;

HILLSBORO      PTSUNNY   67  60  77 NW24      29.75R
6HR MIN TEMP:  67; 6HR MAX TEMP:  72;

CORSICANA      CLOUDY    72  62  71 E7        29.71S
6HR MIN TEMP:  72; 6HR MAX TEMP:  76;

MEXIA          MOSUNNY   74  65  74 E6        29.69R
6HR MIN TEMP:  73; 6HR MAX TEMP:  77;

HEARNE         SUNNY     79  67  66 N6        29.68R
6HR MIN TEMP:  77; 6HR MAX TEMP:  82;

CAMERON        SUNNY     80  65  61 N6        29.68R
6HR MIN TEMP:  77; 6HR MAX TEMP:  82; 6HR PCP:  0.01;

TEMPLE         SUNNY     75  61  60 N5        29.69S
6HR MIN TEMP:  75; 6HR MAX TEMP:  81;

KILLEEN        SUNNY     78  51  39 NW8       29.70R
6HR MIN TEMP:  74; 6HR MAX TEMP:  80;

KILLEEN-SKYLRK SUNNY     79  55  44 N5        29.71R
6HR MIN TEMP:  75; 6HR MAX TEMP:  81;

FORT HOOD      MOSUNNY   79  52  39 NW6       29.70R
6HR MIN TEMP:  74; 6HR MAX TEMP:  81;

GATESVILLE     SUNNY     79  54  41 NW9       29.73R
HAMILTON       SUNNY     75  51  43 NW10G16   29.75R
6HR MIN TEMP:  72; 6HR MAX TEMP:  79;

LAMPASAS       SUNNY     77  54  44 N6        29.72R
6HR MIN TEMP:  73; 6HR MAX TEMP:  78;

$$

TXZ095>097-106>112-122>126-135>138-148>153-164>167-280100-
EAST TEXAS

CITY           SKY/WX    TMP DP  RH WIND       PRES   REMARKS
PARIS          CLOUDY    64  46  52 MISG      29.82S
6HR MIN TEMP:  64; 6HR MAX TEMP:  70;

SULPHUR SPRNGS CLOUDY    67  55  65 NE13G18   29.79F
6HR MIN TEMP:  67; 6HR MAX TEMP:  70;

MOUNT PLEASANT CLOUDY   N/A N/A N/A NE5       29.80R
GILMER         CLOUDY    69  56  62 NE5       29.77R
6HR MIN TEMP:  67; 6HR MAX TEMP:  73;

MINEOLA        CLOUDY    70  57  64 NE7       29.75F
TYLER          CLOUDY    70  58  65 NE12      29.73S
6HR MIN TEMP:  70; 6HR MAX TEMP:  75;

LONGVIEW       PTSUNNY   71  56  58 E10       29.74S
6HR MIN TEMP:  68; 6HR MAX TEMP:  75;

MARSHALL       MOSUNNY   73  57  56 E7        29.78S
6HR MIN TEMP:  68; 6HR MAX TEMP:  75;

ATHENS         CLOUDY    70  59  68 NE6       29.71R
PALESTINE      CLOUDY   N/A N/A N/A E6        29.71S
JACKSONVILLE   CLOUDY    70  62  74 E7        29.75R
HENDERSON      CLOUDY    70  58  65 E7        29.75S
6HR MIN TEMP:  70; 6HR MAX TEMP:  76;

NACOGDOCHES    CLOUDY   N/A N/A N/A E7        29.73R
6HR MIN TEMP:  70; 6HR MAX TEMP:  73;

LUFKIN         PTSUNNY   73  63  70 E8        29.72R
6HR MIN TEMP:  73; 6HR MAX TEMP:  79;

$$

SUPPLEMENTAL OBSERVATIONS (CENTRAL)

CITY           SKY/WX    TMP DP  RH WIND       PRES   REMARKS
LAKE TEXOMA      N/A     63  54  72 N10         N/A
CADDO GRASSLND   N/A     64  50  59 NE8         N/A
PAT MAYSE LAKE   N/A     63  46  55 NE8         N/A
GREENVILLE       N/A     64  52  63 NE14        N/A
CEDAR HILL       N/A     63  59  88 N8G17       N/A
ATHENS           N/A     70  59  68 NE3         N/A
LAKE LIMESTONE   N/A     73  66  78 NE8G17      N/A
MCGREGOR         N/A     77  63  61 E1          N/A
TEMPLE           N/A     81  59  47 NW1         N/A
$$

SUPPLEMENTAL OBSERVATIONS (WEST)

CITY           SKY/WX    TMP DP  RH WIND       PRES   REMARKS


USA.gov is the U.S. government's official web portal to all federal, state and local government web resources and services.